Weather in Meletsk

Russia / Krasnoyarsk Krai     57°25′05″N   90°12′38″E
temp.,
°C
wind,
m/s
gust,
m/s
humid.,
%
clouds,
%
prec.,
mm/h
press.,
hPa
HPBL,
m
14 may, fri
fri1401:00+8sw268843 0.4 1012123
04:00+7nnw269554 0.1 1011120
07:00+9wnw2785100 0.1 1012417
10:00+12nw575797 0.0 10131392
13:00+7nw5873100 0.4 10161238
16:00+11nw69315 0.0 10152143
19:00+11nw41034100 0.0 10171970
22:00+6w2651100 0.0 1018116
15 may, sat
sat1501:00+4wsw296355 0.0 1018202
04:00+6sw41259100 0.0 1016413
07:00+8sw61761100 0.2 1014796
10:00+14wsw713494 0.1 1012960
13:00+14w6126097 0.1 10121119
16:00+18w6105689 0.0 10121690
19:00+16w4866100 0.2 1012755
22:00+11nne2496100 2.5 1012304
16 may, sun
sun1601:00+8nne3695100 6.6 1013351
04:00+7nne259496 0.0 1015332
07:00+7ene2480100 0.0 1015370
10:00+8ene2368100 0.0 1014533
13:00+8ene3474100 0.5 1013538
16:00+7ene2591100 7.1 1012400
19:00+7n248494 7.4 1011279
22:00+4wnw118625 0.0 101310
17 may, mon
mon1701:00+5wnw2385100 0.0 101381
04:00+5wnw1390100 0.0 101383
07:00+6nnw1278100 0.0 1014128
10:00+7nne126098 0.0 1014319
13:00+11w2353100 0.0 10131198
16:00+12nw2453100 0.0 10121542
19:00+10nnw2565100 0.0 1012241
22:00+8nw1173100 0.0 101219
18 may, tue
tue1801:00+7nne1182100 0.1 101245
04:00+6ene2380100 0.0 101195
07:00+6e1360100 0.2 1011163
10:00+8ene3538100 0.0 1010875
13:00+10ne3534100 0.0 10091519
16:00+12n352853 0.0 10091994
19:00+10n463493 0.0 1010982
22:00+4n275237 0.0 1011125